Regional Weather Roundup
Issued by NWS Lake Charles, LA

Home | Current Version | Previous Version | Text Only | Print | Product List | Glossary On
Versions: 1 2 3 4 5 6 7 8 9 10 11 12 13 14 15 16 17 18 19 20 21 22 23 24 25 26 27
000
ASUS44 KLCH 231610
RWRLCH
REGIONAL WEATHER ROUNDUP
NATIONAL WEATHER SERVICE LAKE CHARLES LA
1100 AM CDT SUN JUL 23 2017

Note: "fair" indicates few or no clouds below 12,000 feet with no
significant weather and/or obstructions to visibility.


ACROSS SOUTHEAST TEXAS

CITY           SKY/WX    TMP DP  RH WIND       PRES   REMARKS
BEAUMONT       CLOUDY    84  79  85 W7        29.98R
BEAUMONT CITY  PTSUNNY   89  75  63 MISG      29.99R
ORANGE         PTSUNNY   84  80  88 CALM      30.00R
JASPER           N/A     86  78  77 SW8       30.00S
$$

ACROSS CENTRAL LOUISIANA

CITY           SKY/WX    TMP DP  RH WIND       PRES   REMARKS
LEESVILLE      CLOUDY    85  76  75 SW8       29.97F
FULLERTON      FAIR      87  77  72 VRB3      29.95F
ALEXANDRIA INT CLOUDY    85  77  77 SW9       29.95F
ESLER FIELD    CLOUDY    86  76  71 W10       29.96F
DERIDDER       CLOUDY    84  81  88 SW8       30.01R
OAKDALE        CLOUDY    83  77  80 S5        29.98F THUNDER
OPELOUSAS      PTSUNNY   79  74  86 SW7       29.99F THUNDER
$$

ACROSS SOUTHWEST AND SOUTH CENTRAL LOUISIANA

CITY           SKY/WX    TMP DP  RH WIND       PRES   REMARKS
SULPHUR        CLOUDY    81  76  85 CALM      30.00R
LAKE CHARLES   LGT RAIN  78  78 100 CALM      29.99S
CHENNAULT INT  TSTM      75  72  88 S6        29.99F
CAMERON PHI    SUNNY     77  72  83 CALM      29.99R
DEQUINCY       PTSUNNY   82  77  84 CALM      29.99S
JENNINGS       TSTM      76  75  95 S5        30.00S
LAFAYETTE      LGT RAIN  76  74  93 S9        30.00F
NEW IBERIA     LGT RAIN  74  71  91 S7        30.02R
ABBEVILLE      RAIN      73  73 100 S6        30.01F
PATTERSON      LGT RAIN  74  73  97 SW6       30.05R
SALT POINT       N/A     74  72  93 VRB7      30.04R
$$

SELECTED SITES ACROSS THE REGION

CITY           SKY/WX    TMP DP  RH WIND       PRES   REMARKS
HOUSTON BUSH   PTSUNNY   89  75  63 SW12      29.97R
HOUSTON HOBBY  PTSUNNY   91  74  57 W13       29.96R HX 100
GALVESTON      MOSUNNY   89  76  65 SW20      29.98R HX 100
COLLEGE STAT   SUNNY     91  72  53 SW15G22   29.95S
CONROE         CLOUDY    89  75  63 SW12      29.97R
HUNTSVILLE     MOSUNNY   88  73  61 SW13G22   29.97R
LUFKIN         CLOUDY    86  76  71 SW7       29.96R
SHREVEPORT     CLOUDY    85  77  77 S3        29.95R
MONROE         PTSUNNY   85  76  74 W10       29.97R
NATCHEZ MS     NOT AVBL
BATON ROUGE    CLOUDY    81  72  74 SW9       30.01R
N.O. INTL ARPT LGT RAIN  76  74  93 W10       30.02R
SLIDELL        LGT RAIN  78  75  90 SW5       30.00S
$$

MARINE REPORTS

STATION/POSITION TIME  SKY/WX   TEMP    WIND        PRES    VSBY
                                AIR SEA DIR/SP/G
                 (UTC)          (F)     (DEG/KT/KT) (MB)    (MI)
BUOY 30 S HIGH I 1450            86 87  230/ 16/ 19 1014.5
WVE H/P(F/S)=  4/ 5

SEA RIM ST PARK  1500            86     230/ 12/ 17 1015.4R
PORT ARTHUR      1548            85 87  230/  8/ 12 1015.4R
SABINE PASS N    1548            87 88  230/  7/ 13 1016.6R
TEXAS POINT      NOT AVBL
CALCASIEU PASS   1548            80 86  310/  3/  5 1014.5S
LK CHARLES BEACH 1548            77 84              1015.9R
MARSH ISLAND     NOT AVBL
FRESH WATER LOCK 1548            72 86   70/  1/  2 1017.0F
AMERADA PASS     1548            75 83  270/  8/ 13 1017.6R
$$




USA.gov is the U.S. government's official web portal to all federal, state and local government web resources and services.